www.pogodaiklimat.ru

Погода и климат >> Архив погоды >> Россия >> Чувашия >> Алатырь


ПОГОДА в Алатыре

  • Прогноз погоды в Алатыре
  • Монитор погоды в Алатыре

АРХИВ ПОГОДЫ в Алатыре

Время (UTC), дата Ветер
(напр.,м/с)
 
Видим.   Явления Облачность Т
(С)
Тd
(С)
f
(%)
Тe
(С)
Тes
(С)
Комфортность P
(гПа)
Po
(гПа)
Тmin
(С)
Tmax
(С)
R
(мм)
R24
(мм)
S
(см)
18 9.06 ЮЗ 2-2
{2}
50 км 3/3 600 м
[Sc]
+19.6 +8.2 48 +21 +21 комфорт 1023.0 1001.9
21 9.06 ЮЗ 3-3
{3}
20 км ясно +17.9 +7.4 50 +18 +18 1023.2 1001.9
00 10.06 Ю 2-2
{3}
20 км 3/0
[Ci fib]
+13.8 +8.6 71 +13 +13 1023.3 1001.7
03 10.06 ЮЗ 2-2
{3}
50 км 3/0
[Ac trans Ci fib]
+16.4 +10.2 67 +17 +19 1023.2 1001.9 +11.7
06 10.06 ЮЗ 3-5
{5}
50 км 3/0
[Ac lent Ci fib]
+24.6 +12.2 46 +26 +33 жарко 1022.4 1001.6
09 10.06 З 4-5
{6}
50 км ясно +28.6 +9.9 31 +29 +40 жарко 1021.4 1000.9
12 10.06 ЮЗ 4-6
{8}
50 км 3/0
[Ac trans]
+29.8 +10.6 30 +30 +36 жарко 1019.6 999.2
15 10.06 З 4-6
{9}
50 км 6/4 600 м
[Sc Ac trans]
+26.1 +10.9 39 +27 +28 жарко 1019.5 998.9 +30.0
18 10.06 СЗ 2-2
{5}
20 км 3/0
[Ac trans]
+23.8 +13.3 52 +26 +26 жарко 1019.4 998.6
21 10.06 З 2-2
{3}
20 км 3/0
[Ac cast]
+20.4 +11.8 58 +23 +23 комфорт 1019.6 998.5
00 11.06 З 3-3
{4}
20 км ясно +17.3 +11.9 71 +17 +17 1019.8 998.5
03 11.06 СЗ 3-4
{6}
50 км ясно +19.9 +14.0 69 +22 +24 комфорт 1020.1 999.0 +16.6
06 11.06 СЗ 2-4
{5}
50 км ясно +24.5 +15.1 56 +27 +39 жарко 1019.9 999.1
09 11.06 СЗ 4-9
{9}
50 км 3/3 1000 м
[Cu hum]
+27.3 +12.6 40 +29 +36 жарко 1019.6 999.0
12 11.06 З 6-9
{9}
50 км 6/3 1000 м
[Cu hum Ac trans Ci fib]
+28.4 +12.8 38 +30 +32 жарко 1018.1 997.6
15 11.06 С 4-6
{10}
50 км 3/0
[Ci fib]
+25.7 +8.8 34 +26 +27 жарко 1017.6 997.0 +28.6
18 11.06 СЗ 2-2
{8}
20 км 3/0
[Ac lent]
+19.9 +8.9 49 +22 +22 комфорт 1018.3 997.3
21 11.06 СЗ 3-4
{4}
20 км ясно +18.3 +8.4 52 +19 +19 1018.3 997.2
00 12.06 СЗ 1-2
{4}
20 км ясно +16.0 +8.5 61 +17 +17 1018.1 996.8
03 12.06 СЗ 1-2
{3}
50 км ясно +18.9 +10.2 57 +21 +24 комфорт 1017.8 996.7 +14.2
06 12.06 СЗ 2-4
{4}
50 км 4/0
[Ac cast Ci fib]
+23.5 +8.8 39 +24 +33 комфорт 1017.0 996.3
09 12.06 СЗ 5-9
{10}
50 км 8/4 600 м
[Cu hum Ac As Ci fib]
+26.2 +9.3 34 +27 +30 жарко 1015.5 995.0
12 12.06 СЗ 5-8
{10}
50 км 8/3 600 м
[Cu hum Ac As Ci fib]
+26.3 +8.4 32 +26 +29 жарко 1014.3 993.8
15 12.06 С 5-9
{10}
50 км 10/10 600 м
[Sc]
+22.8 +10.0 44 +25 +25 комфорт 1014.6 993.8 +26.6
18 12.06 С 3-4
{10}
20 км 10/10 600 м
[Sc]
+17.5 +8.6 56 +18 +18 1016.4 995.2
21 12.06 С 5-8
{8}
20 км 10/10 600 м
[Sc]
+16.4 +8.4 59 +16 +16 1017.0 995.8
00 13.06 СВ 3-5
{11}
20 км 8/8 600 м
[Sc Ac As]
+9.8 -0.5 49 +8 +8 1021.7 999.7
03 13.06 С 5-9
{10}
50 км ясно +8.2 -1.2 51 +5 +6 1023.3 1001.3 +7.5
06 13.06 С 6-9
{10}
50 км 6/0
[Ac As]
+11.6 -0.2 44 +9 +12 1024.5 1002.7
09 13.06 С 5-8
{10}
50 км 3/3 600 м
[Cu hum]
+15.3 0.0 35 +14 +20 1024.4 1002.8
12 13.06 С 5-8
{11}
50 км ясно +16.9 -0.5 31 +16 +22 1023.3 1002.0
15 13.06 С 5-8
{10}
50 км 3/0
[Ci fib]
+16.5 -0.7 31 +16 +17 1023.3 1001.9 +17.4
18 13.06 С 3-4
{9}
50 км 3/0
[Ci fib]
+11.7 +1.3 49 +10 +10 1023.6 1001.9
21 13.06 СЗ 2-3
{4}
20 км 4/0
[Ac trans Ci fib]
+9.0 +1.7 60 +8 +8 1024.1 1002.1
00 14.06 СЗ 2-3
{3}
50 км 4/0
[Ci fib]
+7.9 +1.3 63 +6 +6 1024.9 1002.8
03 14.06 З 2-2
{3}
50 км 4/0
[Ac trans Ci fib]
+11.1 +2.9 57 +10 +12 1023.7 1002.0 +7.3
06 14.06 З 3-5
{5}
50 км 8/3 600 м
[Cu hum Ac trans Cs]
+16.4 +0.9 35 +16 +20 1022.4 1001.0
09 14.06 З 3-6
{8}
50 км 9/8 600 м
[Cu Sc Ac trans]
+18.0 +2.5 35 +18 +20 1020.3 999.0
12 14.06 СЗ 4-6
{8}
50 км 10/10 600 м
[Sc]
+17.2 +2.5 37 +17 +17 1018.1 996.9
15 14.06 СЗ 3-4
{6}
10 км слаб. ливневой дождь 10/10 300 м
[Cb cap]
+12.1 +7.1 71 +11 +11 1017.4 995.8 +18.4 0.6
18 14.06 ЮВ 2-3
{7}
20 км {ливн. осадки} 10/10 300 м
[Sc]
+9.7 +7.8 88 +8 +8 1016.0 994.2
21 14.06 штиль 0
{3}
20 км 10/10 600 м
[Sc]
+9.6 +7.7 88 +9 +9 1015.7 993.9
00 15.06 СВ 1-2
{2}
20 км 8/8 600 м
[Sc]
+8.9 +7.7 92 +8 +8 1014.9 993.1
03 15.06 С 2-3
{4}
50 км 3/0
[Ac trans]
+8.6 +7.3 92 +7 +9 1015.8 994.0 +7.6 0.5
06 15.06 СВ 2-4
{5}
50 км 8/8 1000 м
[Cu med, cong]
+13.1 +6.2 63 +13 +15 1015.5 994.0
09 15.06 СЗ 2-4
{5}
50 км 9/8 600 м
[Sc diur, vesp Cc]
+15.3 +5.1 51 +15 +18 1015.3 993.9
12 15.06 СЗ 2-4
{6}
50 км 8/8 600 м
[Sc diur, vesp]
+17.9 +4.8 42 +18 +21 1014.2 993.0
15 15.06 СЗ 2-3
{6}
50 км 6/4 600 м
[Sc Ac trans]
+16.0 +5.1 48 +16 +17 1012.9 991.7 +18.4
18 15.06 З 2-2
{4}
20 км 8/8 600 м
[Sc]
+14.0 +5.6 57 +14 +14 1013.2 991.8
21 15.06 З 2-3
{3}
20 км 8/8 600 м
[Sc]
+12.2 +5.8 65 +11 +11 1012.9 991.4
00 16.06 СЗ 2-3
{4}
50 км 8/6 600 м
[Sc Ac trans]
+10.7 +5.9 72 +10 +10 1012.2 990.7
03 16.06 З 2-3
{4}
50 км 4/4 600 м
[Sc]
+12.9 +7.4 69 +12 +14 1012.3 990.9 +10.0
06 16.06 СЗ 2-4
{5}
50 км 8/6 600 м
[Sc Ac trans]
+17.1 +6.8 51 +17 +21 1012.3 991.1
09 16.06 СЗ 3-5
{7}
50 км 9/8 600 м
[Sc Ac As]
+18.2 +6.1 45 +18 +20 1011.6 990.5
12 16.06 З 3-5
{8}
50 км 9/9 600 м
[Sc]
+20.2 +5.8 39 +21 +22 комфорт 1011.1 990.2
15 16.06 СЗ 3-5
{7}
50 км 9/8 600 м
[Cu Sc Ac trans]
+19.3 +7.3 46 +20 +21 1011.1 990.1 +21.3

 

Местоположение метеостанции Алатырь (Чувашия, Россия): широта 54.82 долгота 46.58 высота над уровнем моря 180 м.

В архиве по умолчанию представлена погода в Алатыре за последнюю неделю. Архивные данные за месяц целиком и за предыдущие месяцы, начиная с января 2011 года, Вы можете получить, выбрав интересующий диапазон дат из раскрывающегося списка и нажав кнопку "Ввод!".


*Определитесь, кто Вы:
робот инопланетянин человек

Внимание! Время в таблицах - всемирное. Для получения местного времени необходимо прибавить поправку, которая равна 3 ч.

Смотрите также архив погоды в соседних городах и на ближайших метеорологических станциях:

Погода в Сурском (Ульяновская область, Россия) (39 км)
Погода в Порецком (Чувашия, Россия) (43 км)
Погода в Дрожжаном (Татарстан, Россия) (64 км)
Погода в Батырево (Чувашия, Россия) (71 км)
Погода в Больших Березниках (Мордовия, Россия) (82 км)
Погода в Большом Болдино (Нижегородская область, Россия) (84 км)
Погода в Канаше (Чувашия, Россия) (96 км)
Погода в Сергаче (Нижегородская область, Россия) (105 км)
Погода в Инзе (Ульяновская область, Россия) (108 км)
Погода в Саранске (Мордовия, Россия) (115 км)

Пояснения к столбцам:

Ветер - указаны скорость ветра в м/с - средняя за 10 мин, порывы в срок и между сроками (в фигурных скобках) и направление, откуда дует ветер: С - северный, СВ - северо-восточный, В - восточный, ЮВ - юго-восточный, Ю - южный, ЮЗ - юго-западный, З - западный, СЗ - северо-западный.
Видимость - горизонтальная дальность видимости в метрах или километрах. При видимости от 1 до 10 км при отсутствии осадков обычно наблюдается дымка, при ухудшении видимости до 1 км и менее - туман. В сухую погоду видимость может ухудшаться дымом, пылью или мглою.
Явления - указаны атмосферные явления, наблюдавшиеся в срок или в последний час перед сроком; фигурными скобками обозначены явления, наблюдавшиеся между сроками (за 1-3 часа до срока); квадратными скобками обозначены град или гололедные отложения с указанием их диаметра в мм.
Облачность - указаны через наклонную черту общая и нижняя облачность в баллах и высота нижней границы облаков в метрах; квадратными скобками обозначены формы облаков: Ci - перистые, Cs - перисто-слоистые, Cc - перисто-кучевые, Ac - высококучевые, As - высокослоистые, Sc - слоисто-кучевые, Ns - слоисто-дождевые, Cu - кучевые, Cb - кучево-дождевые. Подробнее классификацию облаков см. в Атласе облаков (PDF).
T - Температура воздуха - температура, измеренная на высоте 2 м над землей.
Td - Температура точки росы - температура, при понижении до которой содержащийся в воздухе водяной пар достигнет насыщения.
f - Относительная влажность воздуха - влажноcть воздуха, измеренная на высоте 2 м над землей.
Te - Эффективная температура - температура, которую ощущает одетый по сезону человек в тени. Характеристика душности погоды. При расчете учитывается влияние влажности воздуха и скорости ветра на теплоощущения человека.
Tes - Эффективная температура на солнце - температура, которую ощущает человек, с поправкой на солнечный нагрев. Характеристика знойности погоды. Зависит от высоты солнца над горизонтом, облачности и скорости ветра. Ночью, в пасмурную погоду, а также при ветре 12 м/с и более поправка равна нулю.
P - Атмосферное давление - приведенное к уровню моря атмосферное давление.
Po - Атмосферное давление - измеренное на уровне метеостанции атмосферное давление.
Tmin - Минимальная температура - минимум температуры воздуха на высоте 2 м над землей.
Tmax - Максимальная температура - максимум температуры воздуха на высоте 2 м над землей.
R - Количество осадков - Количество выпавших осадков за период времени, мм. При наведении курсора мыши на число - период времени, за который выпало указанное количество осадков.
R24 - Количество осадков - Количество выпавших осадков за 24 часа, мм.
S - Снежный покров - Высота снежного покрова, см. При наведении курсора мыши на число - состояние снежного покрова и степень покрытия местности в баллах.